Weather in Klyaush

Russia / Republic of Tatarstan     56°00′29″N   51°15′38″E
temp.,
°C
wind,
m/s
gust,
m/s
humid.,
%
clouds,
%
prec.,
mm/h
press.,
hPa
HPBL,
m
28 june, tue
tue2800:00+9nne410920 0.0 1015368
03:00+6n36950 0.0 1016118
06:00+9nnw47814 0.0 1016375
09:00+12nnw795897 0.0 10161702
12:00+12nnw595259 0.0 10171902
15:00+14nnw795367 0.0 10172086
18:00+11n6116498 0.0 10181407
21:00+7nnw36757 0.0 1019124
29 june, wed
wed2900:00+5nw368324 0.0 1018114
03:00+4nw379116 0.0 1019153
06:00+10nw410736 0.0 1018403
09:00+15nnw68595 0.0 10171047
12:00+17nnw674717 0.0 10161806
15:00+18nnw68495 0.0 10151970
18:00+17nw48675 0.0 1014355
21:00+11wnw3386100 0.0 101422
30 june, thu
thu3000:00+11wnw347799 0.0 101357
03:00+9nw338284 0.0 101240
06:00+12nw4973100 0.0 1011316
09:00+16nw59585 0.0 10091072
12:00+16nnw7861100 1.0 10091599
15:00+14n710664 2.9 10111437
18:00+13n6106137 0.1 10111199
21:00+10n612765 0.1 1012559
1 july, fri
fri100:00+8n613835 0.0 1013469
03:00+7n612835 0.0 1014388
06:00+9nne6107734 0.0 1015498
09:00+13nne686486 0.0 10151298
12:00+15ne61058100 0.0 10151809
15:00+17ne3758100 0.1 10151717
18:00+16nnw367268 0.0 1014253
21:00+12nnw348086 0.1 101562
2 july, sat
sat200:00+9nnw33825 0.0 101523
03:00+8nw22835 0.0 101518
06:00+13wnw23724 0.0 1015160
09:00+18nw33615 0.0 1014575
12:00+21nw45525 0.0 10131454
15:00+22wnw455221 0.0 10121879
18:00+20nw3675100 0.0 1011247
21:00+16wnw238062 0.0 101136